Meteo Giornale » Osservazioni meteo Gran Bretagna » Fairford Royal

ore: 18:56 - Osservazioni Meteo Fairford Royal
Lat. 51° 41' N Lon. 1° 47' W Alt. 87 metri s.l.m.

coperto Europe/London

15 °C

Coperto

Temp. 24 Ore

12 °C

20 °C

Nord-Ovest

9.3 Km/h

Dew point 15 °C

Umidità 100 %

Visibilità  10 Km

Il sole sorge alle ore 06:47

Il sole tramonta alle ore 19:14

Data e Ora Cielo e Fenomeni T °C DP °C Um. % Pres. hPa Vis. km Vento km/h
Oggi h: 18:56 coperto Coperto 15 15 100 1015 10 NO 9.3
Oggi h: 18:32 molto_nuvoloso Molto Nuvoloso 15 15 100 1015 10 NO 9.3
Oggi h: 18:06 coperto_pioggia Pioggia Debole Foschia 15 15 100 1015 10 NO 13
Oggi h: 17:56 coperto_pioggia Pioggia Debole Foschia 15 15 100 1015 8 NO 16.7
Oggi h: 17:44 coperto_pioggia Pioggia Foschia 15 15 100 1015 5 NO 18.5
Oggi h: 17:39 coperto_pioggia Pioggia Debole Foschia 15 15 100 1015 4 O/NO 14.8
Oggi h: 17:34 coperto_pioggia Pioggia 16 15 93 1015 5 O/NO 13
Oggi h: 17:19 coperto_pioggia Pioggia Debole 17 15 88 1015 10 O/NO 13
Oggi h: 16:56 molto_nuvoloso Molto Nuvoloso 18 14 77 1015 10 O 22.2
Oggi h: 15:56 nuvoloso Nuvoloso 19 11 59 1014 10 O 9.3
Oggi h: 14:56 sereno Sereno 20 11 56 1014 10 O/NO 14.8
Oggi h: 13:56 sereno Sereno 19 11 59 1014 10 O 14.8
Oggi h: 12:56 sereno Sereno 19 11 59 1014 10 N 0
Oggi h: 11:56 nuvoloso Nuvoloso 18 12 67 1014 10 NO 7.4
Oggi h: 10:56 nuvoloso Nuvoloso 16 14 87 1014 10 NO 7.4
Oggi h: 09:56 sereno Sereno 14 14 100 1014 10 O 9.3
Oggi h: 09:25 coperto_pioggia Pioviggine Leggera 14 14 100 1013 10 N 5.5
Oggi h: 08:56 poco_nuvoloso Poco Nuvoloso 13 13 100 1013 10 N 0
Oggi h: 08:30 coperto_pioggia Pioggia Debole 13 13 100 1013 10 N 0
Oggi h: 08:20 molto_nuvoloso Molto Nuvoloso 13 13 100 1013 10 N 0
Oggi h: 08:10 molto_nuvoloso Molto Nuvoloso 13 13 100 1013 10 N 0
Oggi h: 08:05 molto_nuvoloso Molto Nuvoloso 13 13 100 1013 10 N 5.5
Oggi h: 08:01 coperto_pioggia Pioviggine Leggera 13 13 100 1013 10 O/NO 7.4
Oggi h: 07:56 coperto_pioggia Pioviggine Leggera 13 13 100 1013 10 O/NO 9.3
Oggi h: 07:55 coperto_pioggia Pioviggine Leggera 13 13 100 1013 10 NO 9.3
Oggi h: 07:47 molto_nuvoloso Molto Nuvoloso 13 13 100 1013 10 NO 7.4
Oggi h: 07:39 coperto_pioggia Pioviggine Leggera 13 13 100 1013 10 N/NO 11.1
Oggi h: 07:24 coperto_pioggia Pioggia Debole 14 13 93 1012 6 NO 11.1
Oggi h: 07:16 foschia Foschia 14 14 100 1012 9 NO 11.1
Oggi h: 06:56 coperto Coperto 14 14 100 1012 10 O/NO 14.8
Oggi h: 06:26 coperto Coperto 14 14 100 1012 10 O/SO 9.3
Oggi h: 06:11 foschia Foschia 14 14 100 1012 8 N 5.5
Oggi h: 06:06 foschia Foschia 14 14 100 1012 8 N 0
Oggi h: 05:56 foschia Foschia 14 14 100 1012 6 N 5.5
Oggi h: 05:11 coperto Coperto 14 13 93 1012 10 N 5.5
Oggi h: 04:56 coperto Coperto 14 13 93 1012 10 N 0
Oggi h: 04:16 coperto Coperto 12 12 100 1011 10 N 0
Oggi h: 04:06 coperto Coperto 12 12 100 1011 10 N 0
Oggi h: 03:56 molto_nuvoloso Molto Nuvoloso 12 12 100 1011 10 N 0
Oggi h: 03:11 nuvoloso Nuvoloso 13 12 93 1011 10 N 0
Oggi h: 02:56 molto_nuvoloso Molto Nuvoloso 12 12 100 1012 10 N 0
Oggi h: 02:51 molto_nuvoloso Molto Nuvoloso 12 12 100 1012 10 N 0
Oggi h: 01:56 nuvoloso Nuvoloso 13 13 100 1012 10 N 0
Oggi h: 00:56 molto_nuvoloso Molto Nuvoloso 14 14 100 1012 10 N 0
Ieri h: 23:56 nuvoloso Nuvoloso 14 14 100 1012 10 N 0
Ieri h: 22:56 sereno Sereno 15 14 93 1012 10 N 0
Ieri h: 21:56 sereno Sereno 15 14 93 1012 10 N 0
Ieri h: 20:56 nuvoloso Nuvoloso 16 14 87 1012 10 N 0
Ieri h: 19:56 sereno Sereno 17 14 82 1012 10 S 9.3
Ieri h: 19:46 sereno Sereno 17 14 82 1012 10 S 9.3
Ieri h: 19:36 coperto_pioggia Pioviggine Leggera 18 13 72 1011 10 S/SE 7.4